Time,TemperatureF,DewpointF,PressureIn,WindDirection,WindDirectionDegrees,WindSpeedMPH,WindSpeedGustMPH,Humidity,HourlyPrecipIn,Conditions,Clouds,dailyrainin,SoftwareType,DateUTC
2013-07-09 00:00:00,61.0,-99.9,-100.00,SSW,210,6.0,6.0,-999,-99.99,,,-99.99,,2013-07-09 06:00:00,
2013-07-09 00:22:00,61.0,-99.9,-100.00,SSW,210,6.0,6.0,-999,-99.99,,,-99.99,,2013-07-09 06:22:00,
2013-07-09 00:34:00,61.0,-99.9,-100.00,SSW,210,6.0,6.0,-999,-99.99,,,-99.99,,2013-07-09 06:34:00,
2013-07-09 00:43:00,61.0,-99.9,-100.00,SSW,210,6.0,6.0,-999,-99.99,,,-99.99,,2013-07-09 06:43:00,
2013-07-09 00:53:00,61.0,-99.9,-100.00,SSW,210,6.0,6.0,-999,-99.99,,,-99.99,,2013-07-09 06:53:00,
2013-07-09 01:00:00,61.0,-99.9,-100.00,WSW,258,3.0,5.0,-999,-99.99,,,-99.99,,2013-07-09 07:00:00,
2013-07-09 01:23:00,61.0,-99.9,-100.00,WSW,258,3.0,5.0,-999,-99.99,,,-99.99,,2013-07-09 07:23:00,
2013-07-09 01:34:00,61.0,-99.9,-100.00,WSW,258,3.0,5.0,-999,-99.99,,,-99.99,,2013-07-09 07:34:00,
2013-07-09 01:43:00,61.0,-99.9,-100.00,WSW,258,3.0,5.0,-999,-99.99,,,-99.99,,2013-07-09 07:43:00,
2013-07-09 01:53:00,61.0,-99.9,-100.00,WSW,258,3.0,5.0,-999,-99.99,,,-99.99,,2013-07-09 07:53:00,
2013-07-09 02:00:00,60.0,-99.9,-100.00,NE,41,12.0,15.0,-999,-99.99,,,-99.99,,2013-07-09 08:00:00,
2013-07-09 02:22:00,60.0,-99.9,-100.00,NE,41,12.0,15.0,-999,-99.99,,,-99.99,,2013-07-09 08:22:00,
2013-07-09 02:33:00,60.0,-99.9,-100.00,NE,41,12.0,15.0,-999,-99.99,,,-99.99,,2013-07-09 08:33:00,
2013-07-09 02:43:00,60.0,-99.9,-100.00,NE,41,12.0,15.0,-999,-99.99,,,-99.99,,2013-07-09 08:43:00,
2013-07-09 02:52:00,60.0,-99.9,-100.00,NE,41,12.0,15.0,-999,-99.99,,,-99.99,,2013-07-09 08:52:00,
2013-07-09 03:00:00,60.0,-99.9,-100.00,SE,141,1.0,3.0,-999,-99.99,,,-99.99,,2013-07-09 09:00:00,
2013-07-09 03:22:00,60.0,-99.9,-100.00,SE,141,1.0,3.0,-999,-99.99,,,-99.99,,2013-07-09 09:22:00,
2013-07-09 03:34:00,60.0,-99.9,-100.00,SE,141,1.0,3.0,-999,-99.99,,,-99.99,,2013-07-09 09:34:00,
2013-07-09 03:43:00,60.0,-99.9,-100.00,SE,141,1.0,3.0,-999,-99.99,,,-99.99,,2013-07-09 09:43:00,
2013-07-09 03:53:00,60.0,-99.9,-100.00,SE,141,1.0,3.0,-999,-99.99,,,-99.99,,2013-07-09 09:53:00,
2013-07-09 04:00:00,57.0,-99.9,-100.00,SSE,160,4.0,5.0,-999,-99.99,,,-99.99,,2013-07-09 10:00:00,
2013-07-09 04:22:00,57.0,-99.9,-100.00,SSE,160,4.0,5.0,-999,-99.99,,,-99.99,,2013-07-09 10:22:00,
2013-07-09 04:34:00,57.0,-99.9,-100.00,SSE,160,4.0,5.0,-999,-99.99,,,-99.99,,2013-07-09 10:34:00,
2013-07-09 04:42:00,57.0,-99.9,-100.00,SSE,160,4.0,5.0,-999,-99.99,,,-99.99,,2013-07-09 10:42:00,
2013-07-09 04:52:00,57.0,-99.9,-100.00,SSE,160,4.0,5.0,-999,-99.99,,,-99.99,,2013-07-09 10:52:00,
2013-07-09 05:00:00,57.0,-99.9,-100.00,SW,222,6.0,7.0,-999,-99.99,,,-99.99,,2013-07-09 11:00:00,
2013-07-09 05:22:00,57.0,-99.9,-100.00,SW,222,6.0,7.0,-999,-99.99,,,-99.99,,2013-07-09 11:22:00,
2013-07-09 05:34:00,57.0,-99.9,-100.00,SW,222,6.0,7.0,-999,-99.99,,,-99.99,,2013-07-09 11:34:00,
2013-07-09 05:42:00,57.0,-99.9,-100.00,SW,222,6.0,7.0,-999,-99.99,,,-99.99,,2013-07-09 11:42:00,
2013-07-09 05:53:00,57.0,-99.9,-100.00,SW,222,6.0,7.0,-999,-99.99,,,-99.99,,2013-07-09 11:53:00,
2013-07-09 06:00:00,56.0,-99.9,-100.00,WSW,240,5.0,6.0,-999,-99.99,,,-99.99,,2013-07-09 12:00:00,
2013-07-09 06:22:00,56.0,-99.9,-100.00,WSW,240,5.0,6.0,-999,-99.99,,,-99.99,,2013-07-09 12:22:00,
2013-07-09 06:33:00,56.0,-99.9,-100.00,WSW,240,5.0,6.0,-999,-99.99,,,-99.99,,2013-07-09 12:33:00,
2013-07-09 06:43:00,56.0,-99.9,-100.00,WSW,240,5.0,6.0,-999,-99.99,,,-99.99,,2013-07-09 12:43:00,
2013-07-09 06:53:00,56.0,-99.9,-100.00,WSW,240,5.0,6.0,-999,-99.99,,,-99.99,,2013-07-09 12:53:00,
2013-07-09 07:00:00,61.0,-99.9,-100.00,SW,229,6.0,8.0,-999,-99.99,,,-99.99,,2013-07-09 13:00:00,
2013-07-09 07:22:00,61.0,-99.9,-100.00,SW,229,6.0,8.0,-999,-99.99,,,-99.99,,2013-07-09 13:22:00,
2013-07-09 07:33:00,61.0,-99.9,-100.00,SW,229,6.0,8.0,-999,-99.99,,,-99.99,,2013-07-09 13:33:00,
2013-07-09 07:44:00,61.0,-99.9,-100.00,SW,229,6.0,8.0,-999,-99.99,,,-99.99,,2013-07-09 13:44:00,
2013-07-09 07:53:00,61.0,-99.9,-100.00,SW,229,6.0,8.0,-999,-99.99,,,-99.99,,2013-07-09 13:53:00,
2013-07-09 08:00:00,68.0,-99.9,-100.00,West,266,4.0,5.0,-999,-99.99,,,-99.99,,2013-07-09 14:00:00,
2013-07-09 08:34:00,68.0,-99.9,-100.00,West,266,4.0,5.0,-999,-99.99,,,-99.99,,2013-07-09 14:34:00,
2013-07-09 08:43:00,68.0,-99.9,-100.00,West,266,4.0,5.0,-999,-99.99,,,-99.99,,2013-07-09 14:43:00,
2013-07-09 08:53:00,68.0,-99.9,-100.00,West,266,4.0,5.0,-999,-99.99,,,-99.99,,2013-07-09 14:53:00,
2013-07-09 09:00:00,70.0,-99.9,-100.00,NNW,338,6.0,8.0,-999,-99.99,,,-99.99,,2013-07-09 15:00:00,
2013-07-09 09:34:00,70.0,-99.9,-100.00,NNW,338,6.0,8.0,-999,-99.99,,,-99.99,,2013-07-09 15:34:00,
2013-07-09 09:43:00,70.0,-99.9,-100.00,NNW,338,6.0,8.0,-999,-99.99,,,-99.99,,2013-07-09 15:43:00,
2013-07-09 09:52:00,70.0,-99.9,-100.00,NNW,338,6.0,8.0,-999,-99.99,,,-99.99,,2013-07-09 15:52:00,
2013-07-09 10:00:00,71.0,-99.9,-100.00,NE,39,5.0,8.0,-999,-99.99,,,-99.99,,2013-07-09 16:00:00,
2013-07-09 10:22:00,71.0,-99.9,-100.00,NE,39,5.0,8.0,-999,-99.99,,,-99.99,,2013-07-09 16:22:00,
2013-07-09 10:34:00,71.0,-99.9,-100.00,NE,39,5.0,8.0,-999,-99.99,,,-99.99,,2013-07-09 16:34:00,
2013-07-09 10:43:00,71.0,-99.9,-100.00,NE,39,5.0,8.0,-999,-99.99,,,-99.99,,2013-07-09 16:43:00,
2013-07-09 10:53:00,71.0,-99.9,-100.00,NE,39,5.0,8.0,-999,-99.99,,,-99.99,,2013-07-09 16:53:00,
2013-07-09 11:00:00,73.0,-99.9,-100.00,NE,50,8.0,11.0,-999,-99.99,,,-99.99,,2013-07-09 17:00:00,
2013-07-09 11:35:00,73.0,-99.9,-100.00,NE,50,8.0,11.0,-999,-99.99,,,-99.99,,2013-07-09 17:35:00,
2013-07-09 11:45:00,73.0,-99.9,-100.00,NE,50,8.0,11.0,-999,-99.99,,,-99.99,,2013-07-09 17:45:00,
2013-07-09 11:53:00,73.0,-99.9,-100.00,NE,50,8.0,11.0,-999,-99.99,,,-99.99,,2013-07-09 17:53:00,
2013-07-09 12:00:00,75.0,-99.9,-100.00,NNE,16,7.0,9.0,-999,-99.99,,,-99.99,,2013-07-09 18:00:00,
2013-07-09 12:22:00,75.0,-99.9,-100.00,NNE,16,7.0,9.0,-999,-99.99,,,-99.99,,2013-07-09 18:22:00,
2013-07-09 12:32:00,75.0,-99.9,-100.00,NNE,16,7.0,9.0,-999,-99.99,,,-99.99,,2013-07-09 18:32:00,
2013-07-09 12:43:00,75.0,-99.9,-100.00,NNE,16,7.0,9.0,-999,-99.99,,,-99.99,,2013-07-09 18:43:00,
2013-07-09 12:52:00,75.0,-99.9,-100.00,NNE,16,7.0,9.0,-999,-99.99,,,-99.99,,2013-07-09 18:52:00,
2013-07-09 13:00:00,78.0,-99.9,-100.00,NE,34,7.0,12.0,-999,-99.99,,,-99.99,,2013-07-09 19:00:00,
2013-07-09 13:33:00,78.0,-99.9,-100.00,NE,34,7.0,12.0,-999,-99.99,,,-99.99,,2013-07-09 19:33:00,
2013-07-09 13:43:00,78.0,-99.9,-100.00,NE,34,7.0,12.0,-999,-99.99,,,-99.99,,2013-07-09 19:43:00,
2013-07-09 13:52:00,78.0,-99.9,-100.00,NE,34,7.0,12.0,-999,-99.99,,,-99.99,,2013-07-09 19:52:00,
2013-07-09 14:00:00,79.0,-99.9,-100.00,NW,319,9.0,12.0,-999,-99.99,,,-99.99,,2013-07-09 20:00:00,
2013-07-09 14:33:00,79.0,-99.9,-100.00,NW,319,9.0,12.0,-999,-99.99,,,-99.99,,2013-07-09 20:33:00,
2013-07-09 14:43:00,79.0,-99.9,-100.00,NW,319,9.0,12.0,-999,-99.99,,,-99.99,,2013-07-09 20:43:00,
2013-07-09 14:52:00,79.0,-99.9,-100.00,NW,319,9.0,12.0,-999,-99.99,,,-99.99,,2013-07-09 20:52:00,
2013-07-09 15:00:00,81.0,-99.9,-100.00,ESE,112,7.0,12.0,-999,-99.99,,,-99.99,,2013-07-09 21:00:00,
2013-07-09 15:43:00,81.0,-99.9,-100.00,ESE,112,7.0,12.0,-999,-99.99,,,-99.99,,2013-07-09 21:43:00,
2013-07-09 15:52:00,81.0,-99.9,-100.00,ESE,112,7.0,12.0,-999,-99.99,,,-99.99,,2013-07-09 21:52:00,
2013-07-09 16:00:00,81.0,-99.9,-100.00,NNE,27,11.0,13.0,-999,-99.99,,,-99.99,,2013-07-09 22:00:00,
2013-07-09 16:22:00,81.0,-99.9,-100.00,NNE,27,11.0,13.0,-999,-99.99,,,-99.99,,2013-07-09 22:22:00,
2013-07-09 16:33:00,81.0,-99.9,-100.00,NNE,27,11.0,13.0,-999,-99.99,,,-99.99,,2013-07-09 22:33:00,
2013-07-09 16:42:00,81.0,-99.9,-100.00,NNE,27,11.0,13.0,-999,-99.99,,,-99.99,,2013-07-09 22:42:00,
2013-07-09 16:53:00,81.0,-99.9,-100.00,NNE,27,11.0,13.0,-999,-99.99,,,-99.99,,2013-07-09 22:53:00,
2013-07-09 17:00:00,81.0,-99.9,-100.00,NNW,334,8.0,11.0,-999,-99.99,,,-99.99,,2013-07-09 23:00:00,
2013-07-09 17:33:00,81.0,-99.9,-100.00,NNW,334,8.0,11.0,-999,-99.99,,,-99.99,,2013-07-09 23:33:00,
2013-07-09 17:43:00,81.0,-99.9,-100.00,NNW,334,8.0,11.0,-999,-99.99,,,-99.99,,2013-07-09 23:43:00,
2013-07-09 17:53:00,81.0,-99.9,-100.00,NNW,334,8.0,11.0,-999,-99.99,,,-99.99,,2013-07-09 23:53:00,
2013-07-09 18:00:00,82.0,-99.9,-100.00,NNE,31,6.0,10.0,-999,-99.99,,,-99.99,,2013-07-10 00:00:00,
2013-07-09 18:22:00,82.0,-99.9,-100.00,NNE,31,6.0,10.0,-999,-99.99,,,-99.99,,2013-07-10 00:22:00,
2013-07-09 18:33:00,82.0,-99.9,-100.00,NNE,31,6.0,10.0,-999,-99.99,,,-99.99,,2013-07-10 00:33:00,
2013-07-09 18:43:00,82.0,-99.9,-100.00,NNE,31,6.0,10.0,-999,-99.99,,,-99.99,,2013-07-10 00:43:00,
2013-07-09 18:52:00,82.0,-99.9,-100.00,NNE,31,6.0,10.0,-999,-99.99,,,-99.99,,2013-07-10 00:52:00,
2013-07-09 19:00:00,80.0,-99.9,-100.00,NNW,342,6.0,8.0,-999,-99.99,,,-99.99,,2013-07-10 01:00:00,
2013-07-09 19:22:00,80.0,-99.9,-100.00,NNW,342,6.0,8.0,-999,-99.99,,,-99.99,,2013-07-10 01:22:00,
2013-07-09 19:33:00,80.0,-99.9,-100.00,NNW,342,6.0,8.0,-999,-99.99,,,-99.99,,2013-07-10 01:33:00,
2013-07-09 19:43:00,80.0,-99.9,-100.00,NNW,342,6.0,8.0,-999,-99.99,,,-99.99,,2013-07-10 01:43:00,
2013-07-09 19:53:00,80.0,-99.9,-100.00,NNW,342,6.0,8.0,-999,-99.99,,,-99.99,,2013-07-10 01:53:00,
2013-07-09 20:00:00,78.0,-99.9,-100.00,NNE,12,8.0,10.0,-999,-99.99,,,-99.99,,2013-07-10 02:00:00,
2013-07-09 20:23:00,78.0,-99.9,-100.00,NNE,12,8.0,10.0,-999,-99.99,,,-99.99,,2013-07-10 02:23:00,
2013-07-09 20:34:00,78.0,-99.9,-100.00,NNE,12,8.0,10.0,-999,-99.99,,,-99.99,,2013-07-10 02:34:00,
2013-07-09 20:43:00,78.0,-99.9,-100.00,NNE,12,8.0,10.0,-999,-99.99,,,-99.99,,2013-07-10 02:43:00,
2013-07-09 20:53:00,78.0,-99.9,-100.00,NNE,12,8.0,10.0,-999,-99.99,,,-99.99,,2013-07-10 02:53:00,
2013-07-09 21:00:00,73.0,-99.9,-100.00,NNE,17,3.0,4.0,-999,-99.99,,,-99.99,,2013-07-10 03:00:00,
2013-07-09 21:43:00,73.0,-99.9,-100.00,NNE,17,3.0,4.0,-999,-99.99,,,-99.99,,2013-07-10 03:43:00,
2013-07-09 21:52:00,73.0,-99.9,-100.00,NNE,17,3.0,4.0,-999,-99.99,,,-99.99,,2013-07-10 03:52:00,
2013-07-09 22:00:00,66.0,-99.9,-100.00,WSW,238,5.0,6.0,-999,-99.99,,,-99.99,,2013-07-10 04:00:00,
2013-07-09 22:33:00,66.0,-99.9,-100.00,WSW,238,5.0,6.0,-999,-99.99,,,-99.99,,2013-07-10 04:33:00,
2013-07-09 22:43:00,66.0,-99.9,-100.00,WSW,238,5.0,6.0,-999,-99.99,,,-99.99,,2013-07-10 04:43:00,
2013-07-09 22:52:00,66.0,-99.9,-100.00,WSW,238,5.0,6.0,-999,-99.99,,,-99.99,,2013-07-10 04:52:00,
2013-07-09 23:00:00,67.0,-99.9,-100.00,SW,216,7.0,8.0,-999,-99.99,,,-99.99,,2013-07-10 05:00:00,
2013-07-09 23:22:00,67.0,-99.9,-100.00,SW,216,7.0,8.0,-999,-99.99,,,-99.99,,2013-07-10 05:22:00,
2013-07-09 23:32:00,67.0,-99.9,-100.00,SW,216,7.0,8.0,-999,-99.99,,,-99.99,,2013-07-10 05:32:00,
2013-07-09 23:42:00,67.0,-99.9,-100.00,SW,216,7.0,8.0,-999,-99.99,,,-99.99,,2013-07-10 05:42:00,
2013-07-09 23:53:00,67.0,-99.9,-100.00,SW,216,7.0,8.0,-999,-99.99,,,-99.99,,2013-07-10 05:53:00,